Location: Manchester NH
(43.0000°N, 71.5000°W)
Time: 16:43:25
(UTC-05:00)

N. Korean satellite - Visible Passes

Search period start: 21 January 2022 00:00
Search period end: 31 January 2022 00:00
Orbit: 447 x 491 km, 97.3° (Epoch: 21 January)

Date Brightness Start Highest point End Pass type
(mag) Time Alt. Az. Time Alt. Az. Time Alt. Az.
21 Jan 8.5 04:49:49 10° NNE 04:58:41 - S 04:51:21 23° NNE visible
21 Jan 8.7 06:25:18 10° NW 06:25:24 10° NW 06:25:24 10° NW visible
22 Jan 9.3 04:21:09 10° NE 04:29:16 - SSE 04:22:15 16° NE visible
22 Jan 8.0 05:54:22 10° NNW 05:56:18 20° NW 05:56:18 20° NW visible
23 Jan 7.3 05:24:41 10° N 05:27:13 37° NNW 05:27:13 37° NNW visible
24 Jan 7.4 04:55:28 10° NNE 05:04:26 - S 04:58:09 45° NE visible
25 Jan 8.7 04:26:38 10° NE 04:34:57 - SSE 04:29:03 26° ENE visible
25 Jan 8.0 06:00:09 10° NNW 06:02:47 19° WNW 06:03:07 19° WNW visible
26 Jan 9.8 03:58:40 10° ENE 03:59:58 13° E 03:59:58 13° E visible
26 Jan 6.9 05:30:20 10° N 05:33:46 40° WNW 05:34:03 40° W visible
27 Jan 6.5 05:00:59 10° NNE 05:04:39 82° ESE 05:04:59 71° S visible
28 Jan 8.2 04:32:02 10° NNE 04:35:21 33° E 04:35:56 31° ESE visible
28 Jan 8.1 06:05:52 10° NNW 06:08:13 17° WNW 06:09:59 12° W visible
29 Jan 9.6 04:03:46 10° NE 04:05:57 15° E 04:06:54 14° ESE visible
29 Jan 7.1 05:35:52 10° N 05:39:12 34° WNW 05:40:59 21° WSW visible
30 Jan 6.4 05:06:24 10° N 05:10:03 84° WNW 05:12:00 26° SSW visible
